Content
SEND FEEDBACK

Daily
Averages
Monthly
Summary
United States of America

EL PASO, TEXAS


Home > North America > United States > Texas
Elevation: 3918 feet     Latitude: 31 48N     Longitude: 106 24W

WEATHER
 
SELECT A DAY
Number of Records: 172,236;   Date Range: 1/1/95 - 9/20/14
 
SHARE

PRINT THIS DATA

[ ← Previous Day ]
WEATHER ALMANAC - APRIL 21, 2013
[ Next Day → ]
[ °C ]   °F
Weather ElementAverageHighLow
Temperature69.7 °F82 °F (3:51 pm)50 °F (5:51 am)
Dewpoint8.8 °F15.1 °F (9:51 am)3.9 °F (5:51 am)
Humidity10 %15 % (5:51 am)6 % (2:51 pm)
Barometer29.87 in29.96 in (7:51 am)29.81 in (1:51 am)
Wind Speed7.2 mph15 mph (4:51 pm)
Wind Gust21.9 mph (4:51 pm)
Weather ElementAverage
Visibility10 mi
Wind DirectionSSE (162.2 °)

Weather ElementTotal
Precipitation---
Cooling Degree Days1 (Base 65)
Growing Degree Days16 (Base 50)
Averaged from 23 records on April 21, 2013
WEATHER CONDITIONS BREAKOUT
WIND DIRECTION BREAKOUT
WEATHER BY HOUR - APRIL 21, 2013
[ °C ]   °F
Local TimeTemperatureDewpointHumidityBarometerVisibilityWind DirectionWind SpeedGust SpeedPrecipitationEventsConditions
1:51 AM63.0 °F7.0 °F11 %29.81 in10.0 miNorth (360°)8.1 mphClear
2:51 AM61.0 °F8.1 °F12 %29.81 in10.0 miSSW (200°)3.5 mphClear
3:51 AM57.0 °F7.0 °F14 %29.86 in10.0 miNE (50°)3.5 mphClear
4:51 AM55.9 °F6.1 °F14 %29.88 in10.0 miNNE (20°)6.9 mphClear
5:51 AM50.0 °F3.9 °F15 %29.91 in10.0 miEast (100°)6.9 mphClear
6:51 AM51.1 °F5.0 °F15 %29.94 in10.0 miENE (60°)8.1 mphClear
7:51 AM59.0 °F7.0 °F13 %29.96 in10.0 miNNE (20°)6.9 mphClear
8:51 AM64.0 °F12.9 °F14 %29.96 in10.0 miNNE (20°)6.9 mphClear
9:51 AM68.0 °F15.1 °F13 %29.96 in10.0 miNorth (10°)5.8 mphClear
10:51 AM71.1 °F15.1 °F12 %29.96 in10.0 miNE (40°)5.8 mphClear
11:51 AM73.9 °F14.0 °F10 %29.93 in10.0 miWest (280°)5.8 mphClear
12:51 PM78.1 °F9.0 °F7 %29.90 in10.0 miSW (220°)10.4 mphClear
1:51 PM79.0 °F8.1 °F7 %29.88 in10.0 miWest (280°)12.7 mph20.7 mphClear
2:51 PM80.1 °F8.1 °F6 %29.86 in10.0 miWSW (250°)6.9 mphClear
3:51 PM82.0 °F8.1 °F6 %29.83 in10.0 miWSW (250°)12.7 mph18.4 mphClear
4:51 PM82.0 °F7.0 °F6 %29.82 in10.0 miWSW (250°)15.0 mph21.9 mphClear
5:51 PM82.0 °F9.0 °F6 %29.83 in10.0 miSW (220°)9.2 mph21.9 mphClear
6:51 PM81.0 °F9.0 °F6 %29.82 in10.0 miSW (230°)9.2 mphClear
7:51 PM78.1 °F8.1 °F7 %29.81 in10.0 miSSW (210°)8.1 mphClear
8:51 PM75.0 °F8.1 °F8 %29.82 in10.0 miSSW (210°)4.6 mphClear
9:51 PM73.9 °F8.1 °F8 %29.83 in10.0 miSW (220°)4.6 mphClear
10:51 PM72.0 °F8.1 °F8 %29.82 in10.0 miSW (230°)4.6 mphClear
11:51 PM64.9 °F10.9 °F12 %29.83 in10.0 miCalmClear
Hourly data recorded from KELP, located miles away from El Paso, Texas







STORIES FROM OUR PARTNERS